THORAD AGENA D DEB, 4754

Orbit data source: Space-Track

THORAD AGENA D DEB, 4754 is space debris in SSO originally from a launch on Wed, 08 Apr 1970 UTC launched from the Air Force Western Test Range (AFWTR). Debris objects in space refer to the collection of defunct objects orbiting the Earth. Examples of debris include non-operational satellites, rocket bodies, and fragments generated from explosions, collisions, or faulty payload assembly.

Loading next visibility...
Identifier
4754, 1970-025DC
Orbit
SSO
Country
Flag of USUS
Related business
Manufacturer
Unknown
Mission
Spacecraft
Bus & Motor
Unknown
Mass
Unknown
Launch date (UTC)
1970-04-08 (56 years ago)
Launch vehicle
Unknown
Launch site
Air Force Western Test Range (AFWTR)
Object type
Payload
Rocket body
Debris
Shape & HBR
Unknown shape, 0.1 m
Radar Cross Section
Small (<0.1 m²)

Expand to show TLE details & history
Last TLE update: 19 hours ago

TLE from 19 hours ago
0 THORAD AGENA D DEB
1 04754U 70025DC  26072.33959287  .00007797  00000-0  27399-2 0  9999
2 04754  99.5956  25.0970 0009673 188.6661 171.4355 14.35214733820053
Epoch: 2026-03-13T08:09Z
TLE epoch observation values (Epoch: 2026-03-13T08:09:00.823Z)
Latitude
-0.00009°
Longitude
91.86704°
Altitude
784.101 km
Speed
7.458 km/s
True Right ascension
01h 40m 23s
True Declination
0° 00' 00"
Sunlit
Object was in daylight at epoch
Visualization orbit readout
Latitude
Unknown
Longitude
Unknown
Altitude
Unknown
Speed
Unknown
Apparent Right ascension
Unknown
Apparent Declination
Unknown
Sunlit
N/A
Visualization observer readout
Local Sidereal Time
07:28:11
Azimuth
Unknown
Elevation
Unknown
Doppler factor
Unknown
Orbital elements
Apogee altitude
778.452 km
Perigee altitude
764.62 km
Semi-major axis
7,149.673 km
Eccentricity
0.00097
Inclination
99.5956°
RAAN
25.097°
Arg. of periapsis
188.6661°
True anomaly
171.45199°
Mean anomaly
171.4355°
Eccentric anomaly
171.44375°
Mean motion
3.59016 °/min
Orbital period
100.27 mins
BSTAR
0.0027399
Loading maneuver chart data...
Computing Atmospheric mass density...
Loading historical data...
Loading historical data...
Loading historical data...
Loading historical data...
Loading historical data...
Loading historical data...
Loading historical data...

Documentation

Showing up to 5 results
|